Starlink 30380

operational
NORAD ID: 57780 Int'l Des: 2023-134 Owner: SPXS Country: US Constellation: starlink
LEOCIRCULAR

About Starlink 30380

Description loading...

Live Position

Loading 3D Globe...

Upcoming Passes

Altitude History

Altitude vs Time

uPlot chart will show altitude changes over time

Two-Line Element Set

1 57780U 23134K 25311.90075360 .00000171 00000-0 27762-4 0 9999
2 57780 43.0030 139.0425 0001278 264.3116 95.7581 15.02536446121155
Epoch: Nov 7, 2025 • Age: 16 hours

Current Status

Altitude 558.4 km
Velocity 7.58 km/s
Sub-Earth Point 8.99°N, 107.33°W
Launch Date Sep 4, 2023
Age 2.1 years
Type internet

Technical Details

Classification Payload
Mass 730.00 kg
Dry Mass 700.00 kg
Total Mass 730.00 kg
Length 0.30 m
Diameter 4.10 m
Span 29.00 m
Shape Box + pan
Manufacturer SPXS
Bus Type Starlink V2M
Phase Status In Orbit
Owner/State SPXS/US

Large Constellations

Loading constellations...